Location: Bremen
(53.0793°N, 8.8017°E)
Time: 23:11:14
(UTC+02:00)

Altair - Pass Details

Date: 20 April 2024
Orbit: 1501 x 1682 km, 47.2° (Epoch: 19 May)

Event Time Altitude Azimuth Distance (km) Brightness Sun altitude
Rises 23:34:15 0° 267° (W) 4,886 10.5 -20.9°
Reaches altitude 10° 23:37:28 10° 264° (W) 3,878 9.9 -21.1°
Maximum altitude 23:47:07 62° 188° (S) 1,769 7.5 -21.8°
Enters shadow 23:53:31 23° 116° (ESE) 2,878 8.5 -22.2°
Drops below altitude 10° 23:56:23 10° 111° (ESE) 3,735 - -22.4°
Sets 23:59:26 0° 108° (ESE) 4,696 - -22.5°
